Rochester, NY

11:31 PM EDT on August 31, 2016 (GMT -0400)
Greater Rochester International

Weather History for KROC - November, 2011

Change the Weather History Date:

Saturday, November 12, 2011

  Actual Average Record
Temperature  
Mean Temperature 46 °F 42 °F  
Max Temperature 56 °F 50 °F 72 °F (1982)
Min Temperature 36 °F 34 °F 21 °F (1983)
Degree Days  
Heating Degree Days 19 23  
Month to date heating degree days 211 255  
Since 1 July heating degree days 717 888  
Cooling Degree Days 0 0  
Month to date cooling degree days 0 0  
Year to date cooling degree days 695 539  
Moisture  
Dew Point 30 °F    
Average Humidity 59    
Maximum Humidity 76    
Minimum Humidity 41    
Precipitation  
Precipitation 0.00 in 0.09 in 1.46 in (1879)
Month to date precipitation 0.04 1.13  
Year to date precipitation 35.55 29.83  
Snow  
Snow 0.00 in 0.20 in 5.00 in (1977)
Month to date snowfall T 1.7  
Since 1 July snowfall T 1.8  
Since 1 September snowfall T 1.8  
Snow Depth 0.00 in    
Sea Level Pressure  
Sea Level Pressure 29.91 in    
Wind  
Wind Speed 12 mph (SW)    
Max Wind Speed 25 mph    
Max Gust Speed 31 mph    
Visibility 10 miles    
Events      
T = Trace of Precipitation, MM = Missing Value Source: NWS Daily Summary

Daily Weather History Graph

Daily Weather History Graph

Search for Another Location

Airport or City:

Trip Planner

Search our weather history database for the weather conditions in past years. The results will help you decide how hot, cold, wet, or windy it might be!

Date:

Astronomy

Nov. 12, 2011 Rise Set
Actual Time 6:59 AM EST 4:49 PM EST
Civil Twilight 6:28 AM EST 5:20 PM EST
Nautical Twilight 5:54 AM EST 5:54 PM EST
Astronomical Twilight 5:21 AM EST 6:27 PM EST
Moon 6:01 PM EST (11/12) 8:42 AM EST (11/12)
Length of Visible Light 10h 51m
Length of Day
9h 50m
Full, 97% of the Moon is Illuminated
Nov 12
Full
Nov 18
Last Quarter
Nov 25
New
Dec 2
First Quarter
Dec 10
Full

Hourly Weather History & Observations

Time (EST) Temp. Windchill Dew Point Humidity Pressure Visibility Wind Dir Wind Speed Gust Speed Precip Events Conditions
12:54 AM 37.9 °F 32.1 °F 30.9 °F 76% 29.92 in 10.0 mi SW 8.1 mph - N/A   Overcast
1:54 AM 37.9 °F 32.1 °F 30.9 °F 76% 29.93 in 10.0 mi SSW 8.1 mph - N/A   Overcast
2:54 AM 37.9 °F 30.5 °F 27.0 °F 65% 29.92 in 10.0 mi SW 11.5 mph - N/A   Overcast
3:54 AM 37.0 °F 29.8 °F 26.1 °F 65% 29.90 in 10.0 mi SW 10.4 mph - N/A   Scattered Clouds
4:54 AM 36.0 °F 27.5 °F 26.1 °F 67% 29.89 in 10.0 mi SW 12.7 mph - N/A   Partly Cloudy
5:54 AM 36.0 °F 27.5 °F 26.1 °F 67% 29.88 in 10.0 mi SSW 12.7 mph - N/A   Partly Cloudy
6:54 AM 37.9 °F 31.5 °F 25.0 °F 60% 29.87 in 10.0 mi SW 9.2 mph 18.4 mph N/A   Scattered Clouds
7:54 AM 39.0 °F 31.4 °F 25.0 °F 57% 29.88 in 10.0 mi SW 12.7 mph 21.9 mph N/A   Mostly Cloudy
8:54 AM 39.9 °F 31.8 °F 25.0 °F 55% 29.89 in 10.0 mi SW 15.0 mph 24.2 mph N/A   Mostly Cloudy
9:54 AM 44.1 °F 36.2 °F 27.0 °F 51% 29.86 in 10.0 mi SW 18.4 mph 21.9 mph N/A   Scattered Clouds
10:54 AM 46.9 °F - 28.9 °F 50% 29.88 in 10.0 mi WSW 12.7 mph 21.9 mph N/A   Scattered Clouds
11:54 AM 51.1 °F - 32.0 °F 48% 29.88 in 10.0 mi WSW 17.3 mph 28.8 mph N/A   Partly Cloudy
12:54 PM 53.1 °F - 33.1 °F 47% 29.89 in 10.0 mi WSW 20.7 mph - N/A   Partly Cloudy
1:54 PM 55.0 °F - 33.1 °F 43% 29.89 in 10.0 mi West 16.1 mph 26.5 mph N/A   Partly Cloudy
2:54 PM 55.0 °F - 33.1 °F 43% 29.89 in 10.0 mi West 12.7 mph 24.2 mph N/A   Partly Cloudy
3:54 PM 55.0 °F - 32.0 °F 42% 29.91 in 10.0 mi WSW 17.3 mph 23.0 mph N/A   Partly Cloudy
4:54 PM 52.0 °F - 30.9 °F 45% 29.93 in 10.0 mi SSW 6.9 mph - N/A   Partly Cloudy
5:54 PM 50.0 °F - 32.0 °F 50% 29.94 in 10.0 mi SSW 5.8 mph - N/A   Partly Cloudy
6:54 PM 48.9 °F - 30.9 °F 50% 29.95 in 10.0 mi SSW 6.9 mph - N/A   Partly Cloudy
7:54 PM 48.0 °F - 30.9 °F 52% 29.95 in 10.0 mi SSW 5.8 mph - N/A   Partly Cloudy
8:54 PM 48.0 °F - 30.9 °F 52% 29.95 in 10.0 mi SW 9.2 mph - N/A   Partly Cloudy
9:54 PM 48.9 °F - 32.0 °F 52% 29.95 in 10.0 mi SW 11.5 mph - N/A   Partly Cloudy
10:54 PM 48.9 °F - 32.0 °F 52% 29.95 in 10.0 mi SW 8.1 mph - N/A   Partly Cloudy
11:54 PM 50.0 °F - 32.0 °F 50% 29.95 in 10.0 mi SSW 11.5 mph 18.4 mph N/A   Scattered Clouds